This is the latest recevied weather packets stored in our database for station/object SV9TNF-56. If no packets are shown the sender has not sent any weather packets the latest 10 day(s).
| Time | Temp. | Humidity | Pressure | Rain* | Wind** | Luminosity | Snow |
|---|---|---|---|---|---|---|---|
| 1788045437 | 22.78° C | 72% | 1019 hPa | 0 mm | 4.47 m/s, 6° | - | - |
| 1788045123 | 22.78° C | 72% | 1019 hPa | 0 mm | 2.24 m/s, 138° | - | - |
| 1788044823 | 22.78° C | 72% | 1019 hPa | 0 mm | 6.26 m/s, 278° | - | - |
| 1788044523 | 22.78° C | 72% | 1019 hPa | 0 mm | 4.47 m/s, 289° | - | - |
| 1788044223 | 22.78° C | 72% | 1019 hPa | 0 mm | 3.13 m/s, 246° | - | - |
| 1788043923 | 22.78° C | 72% | 1019 hPa | 0 mm | 6.26 m/s, 222° | - | - |
| 1788043623 | 22.78° C | 72% | 1019 hPa | 0 mm | 6.26 m/s, 159° | - | - |
| 1788043322 | 22.78° C | 72% | 1019 hPa | 0 mm | 4.92 m/s, 162° | - | - |
| 1788043023 | 22.78° C | 72% | 1019 hPa | 0 mm | 12.96 m/s, 183° | - | - |
| 1788042723 | 23.33° C | 73% | 1019 hPa | 0 mm | 8.49 m/s, 144° | - | - |
| 1788042422 | 23.33° C | 72% | 1019 hPa | 0 mm | 12.52 m/s, 222° | - | - |
| 1788042122 | 22.78° C | 72% | 1019 hPa | 0 mm | 7.15 m/s, 108° | - | - |
| 1788041822 | 22.78° C | 71% | 1019 hPa | 0 mm | 8.49 m/s, 108° | - | - |
| 1788041522 | 23.33° C | 72% | 1019 hPa | 0 mm | 8.05 m/s, 102° | - | - |
| 1788041224 | 22.78° C | 71% | 1019.3 hPa | 0 mm | 6.26 m/s, 153° | - | - |
| 1788040922 | 22.78° C | 71% | 1019 hPa | 0 mm | 4.47 m/s, 66° | - | - |
| 1788040622 | 23.33° C | 72% | 1019 hPa | 0 mm | 5.81 m/s, 216° | - | - |
| 1788040322 | 23.33° C | 72% | 1019 hPa | 0 mm | 6.26 m/s, 189° | - | - |
| 1788040022 | 23.33° C | 71% | 1019 hPa | 0 mm | 9.83 m/s, 222° | - | - |
| 1788039721 | 23.33° C | 71% | 1019 hPa | 0 mm | 7.15 m/s, 162° | - | - |
| 1788039422 | 23.33° C | 71% | 1019 hPa | 0 mm | 8.05 m/s, 198° | - | - |
| 1788039121 | 23.33° C | 71% | 1019 hPa | 0 mm | 6.26 m/s, 168° | - | - |
| 1788038822 | 23.33° C | 71% | 1019 hPa | 0 mm | 13.86 m/s, 226° | - | - |
| 1788038521 | 23.33° C | 71% | 1019 hPa | 0 mm | 12.07 m/s, 153° | - | - |
| 1788038221 | 23.33° C | 71% | 1019 hPa | 0 mm | 13.41 m/s, 116° | - | - |
* Rain latest hour (hover to see other rain measurements)
** Current wind speed in m/s (hover to see current wind gust speed)